DERKC EDFM-EDSB

Flight info

Callsign DERKC
Flight time 0h 35m
Altitude 4000
Route RINEX3C RINEX N850 INKAM/N0111F050 N850 KRH KRH4M
Aircraft C172/L-SFG/C

Departure

Time 2026-05-08 20:32
Airport Mannheim-City Airport (EDFM)

Arrival

Time 2026-05-08 21:07
Airport Karlsruhe Baden-Baden Airport (EDSB)
Time Latitude Longitude Altitude Speed Heading
2026-05-08 20:21 49.47703 8.51837 313 ft 0 kts 39°
2026-05-08 20:24 49.47703 8.51838 313 ft 0 kts 39°
2026-05-08 20:24 49.47703 8.51837 313 ft 0 kts 39°
2026-05-08 20:25 49.47703 8.51838 313 ft 0 kts 39°
2026-05-08 20:26 49.47706 8.51870 314 ft 0 kts 92°
2026-05-08 20:26 49.47705 8.51890 314 ft 8 kts 99°
2026-05-08 20:26 49.47686 8.51964 314 ft 0 kts 117°
2026-05-08 20:27 49.47685 8.51967 314 ft 3 kts 116°
2026-05-08 20:27 49.47633 8.52012 313 ft 10 kts 188°
2026-05-08 20:27 49.47604 8.52012 313 ft 3 kts 184°
2026-05-08 20:28 49.47585 8.52126 313 ft 22 kts 93°
2026-05-08 20:28 49.47514 8.52172 313 ft 10 kts 186°
2026-05-08 20:28 49.47403 8.52162 314 ft 24 kts 184°
2026-05-08 20:28 49.47230 8.52132 309 ft 16 kts 213°
2026-05-08 20:29 49.47200 8.51987 310 ft 18 kts 272°
2026-05-08 20:29 49.47210 8.51704 309 ft 35 kts 272°
2026-05-08 20:29 49.47225 8.51287 310 ft 43 kts 274°
2026-05-08 20:29 49.47239 8.50857 314 ft 25 kts 272°
2026-05-08 20:30 49.47248 8.50757 313 ft 0 kts 295°
2026-05-08 20:30 49.47260 8.50723 313 ft 11 kts 301°
2026-05-08 20:31 49.47303 8.50665 315 ft 6 kts 69°
2026-05-08 20:31 49.47301 8.50701 314 ft 0 kts 96°
2026-05-08 20:31 49.47301 8.50716 314 ft 12 kts 92°
2026-05-08 20:31 49.47282 8.51118 312 ft 63 kts 89°
2026-05-08 20:32 49.47251 8.51981 330 ft 92 kts 94°
2026-05-08 20:32 49.47210 8.52842 689 ft 76 kts 92°
2026-05-08 20:32 49.47170 8.53703 879 ft 81 kts 89°
2026-05-08 20:32 49.47148 8.54537 1145 ft 77 kts 92°
2026-05-08 20:33 49.47124 8.55346 1397 ft 74 kts 92°
2026-05-08 20:33 49.47101 8.56120 1656 ft 72 kts 92°
2026-05-08 20:33 49.47078 8.56876 1903 ft 69 kts 92°
2026-05-08 20:33 49.47057 8.57614 2119 ft 70 kts 92°
2026-05-08 20:34 49.47035 8.58360 2329 ft 70 kts 92°
2026-05-08 20:34 49.47014 8.59109 2539 ft 70 kts 92°
2026-05-08 20:34 49.46968 8.60621 2935 ft 73 kts 95°
2026-05-08 20:35 49.46752 8.61321 3133 ft 75 kts 130°
2026-05-08 20:35 49.46309 8.61772 3320 ft 78 kts 144°
2026-05-08 20:35 49.45843 8.62201 3515 ft 79 kts 145°
2026-05-08 20:35 49.45371 8.62633 3706 ft 79 kts 146°
2026-05-08 20:36 49.44896 8.63067 3887 ft 79 kts 147°
2026-05-08 20:36 49.44409 8.63513 4004 ft 89 kts 147°
2026-05-08 20:36 49.43823 8.64042 4016 ft 106 kts 148°
2026-05-08 20:36 49.43156 8.64644 4015 ft 116 kts 148°
2026-05-08 20:37 49.42456 8.65278 4010 ft 121 kts 148°
2026-05-08 20:37 49.41728 8.65939 4011 ft 122 kts 148°
2026-05-08 20:37 49.40997 8.66608 4008 ft 123 kts 148°
2026-05-08 20:37 49.40261 8.67278 4006 ft 123 kts 148°
2026-05-08 20:38 49.39525 8.67950 4006 ft 123 kts 148°
2026-05-08 20:38 49.38746 8.68460 4003 ft 125 kts 176°
2026-05-08 20:38 49.37886 8.68235 4004 ft 126 kts 189°
2026-05-08 20:38 49.37033 8.68002 4006 ft 126 kts 188°
2026-05-08 20:39 49.36166 8.67775 4003 ft 127 kts 188°
2026-05-08 20:39 49.35297 8.67550 4004 ft 127 kts 187°
2026-05-08 20:39 49.34429 8.67328 4003 ft 126 kts 187°
2026-05-08 20:39 49.33571 8.67107 4001 ft 124 kts 187°
2026-05-08 20:40 49.32725 8.66892 3999 ft 123 kts 187°
2026-05-08 20:40 49.31880 8.66676 3998 ft 123 kts 187°
2026-05-08 20:40 49.31041 8.66462 3995 ft 122 kts 187°
2026-05-08 20:40 49.30203 8.66249 3993 ft 122 kts 187°
2026-05-08 20:41 49.29369 8.66037 3991 ft 121 kts 187°
2026-05-08 20:41 49.28550 8.65828 3989 ft 121 kts 187°
2026-05-08 20:41 49.27719 8.65618 3989 ft 121 kts 187°
2026-05-08 20:41 49.26890 8.65407 3986 ft 121 kts 187°
2026-05-08 20:42 49.26064 8.65197 3987 ft 120 kts 187°
2026-05-08 20:42 49.25235 8.64986 3986 ft 121 kts 187°
2026-05-08 20:42 49.24408 8.64776 3988 ft 121 kts 187°
2026-05-08 20:42 49.23580 8.64565 3989 ft 121 kts 187°
2026-05-08 20:43 49.22753 8.64355 3986 ft 120 kts 187°
2026-05-08 20:43 49.21928 8.64145 3984 ft 120 kts 187°
2026-05-08 20:43 49.21114 8.63939 3982 ft 120 kts 186°
2026-05-08 20:43 49.20293 8.63731 3981 ft 120 kts 187°
2026-05-08 20:44 49.19471 8.63522 3982 ft 120 kts 187°
2026-05-08 20:44 49.18645 8.63313 3981 ft 120 kts 187°
2026-05-08 20:44 49.17819 8.63103 3979 ft 120 kts 187°
2026-05-08 20:44 49.16994 8.62894 3979 ft 121 kts 187°
2026-05-08 20:45 49.16165 8.62684 3980 ft 120 kts 186°
2026-05-08 20:45 49.15619 8.62545 3982 ft 120 kts 187°
2026-05-08 20:45 49.14512 8.62265 3980 ft 121 kts 187°
2026-05-08 20:45 49.13683 8.62056 3978 ft 120 kts 186°
2026-05-08 20:46 49.12870 8.61852 3979 ft 120 kts 186°
2026-05-08 20:46 49.12046 8.61644 3978 ft 120 kts 186°
2026-05-08 20:46 49.11224 8.61436 3982 ft 120 kts 187°
2026-05-08 20:46 49.10398 8.61228 3979 ft 120 kts 186°
2026-05-08 20:47 49.09577 8.61020 3978 ft 120 kts 187°
2026-05-08 20:47 49.08750 8.60810 3977 ft 120 kts 186°
2026-05-08 20:47 49.07928 8.60603 3976 ft 120 kts 186°
2026-05-08 20:47 49.07104 8.60395 3979 ft 120 kts 186°
2026-05-08 20:48 49.06285 8.60188 3978 ft 119 kts 186°
2026-05-08 20:48 49.05470 8.59982 3976 ft 118 kts 186°
2026-05-08 20:48 49.04659 8.59779 3977 ft 119 kts 186°
2026-05-08 20:48 49.03851 8.59574 3974 ft 119 kts 186°
2026-05-08 20:49 49.03034 8.59368 3973 ft 119 kts 186°
2026-05-08 20:49 49.02298 8.58818 3978 ft 124 kts 225°
2026-05-08 20:49 49.01801 8.57734 3983 ft 125 kts 233°
2026-05-08 20:49 49.01309 8.56645 3984 ft 125 kts 232°
2026-05-08 20:50 49.00812 8.55549 3982 ft 126 kts 232°
2026-05-08 20:50 49.00313 8.54450 3983 ft 126 kts 232°
2026-05-08 20:50 48.99817 8.53359 3985 ft 125 kts 232°
2026-05-08 20:50 48.99316 8.52260 3987 ft 127 kts 233°
2026-05-08 20:51 48.98821 8.51173 3984 ft 126 kts 232°
2026-05-08 20:51 48.98321 8.50075 3985 ft 126 kts 232°
2026-05-08 20:51 48.97820 8.48978 3986 ft 126 kts 232°
2026-05-08 20:51 48.97321 8.47884 3982 ft 126 kts 232°
2026-05-08 20:52 48.96821 8.46789 3982 ft 126 kts 232°
2026-05-08 20:52 48.96321 8.45694 3983 ft 126 kts 232°
2026-05-08 20:52 48.95820 8.44598 3983 ft 126 kts 232°
2026-05-08 20:52 48.95322 8.43508 3980 ft 124 kts 233°
2026-05-08 20:53 48.94829 8.42430 3976 ft 124 kts 232°
2026-05-08 20:53 48.94338 8.41359 3978 ft 123 kts 232°
2026-05-08 20:53 48.93845 8.40282 3977 ft 124 kts 232°
2026-05-08 20:53 48.93350 8.39200 3976 ft 124 kts 232°
2026-05-08 20:54 48.92862 8.38135 3979 ft 125 kts 232°
2026-05-08 20:54 48.92366 8.37051 3981 ft 125 kts 232°
2026-05-08 20:54 48.91868 8.35964 3981 ft 125 kts 232°
2026-05-08 20:54 48.91370 8.34877 3981 ft 125 kts 232°
2026-05-08 20:55 48.90872 8.33791 3984 ft 125 kts 232°
2026-05-08 20:55 48.90374 8.32706 3983 ft 125 kts 232°
2026-05-08 20:55 48.89875 8.31620 3982 ft 125 kts 232°
2026-05-08 20:55 48.89376 8.30534 3979 ft 126 kts 232°
2026-05-08 20:56 48.88877 8.29448 3980 ft 125 kts 232°
2026-05-08 20:56 48.88625 8.28206 3984 ft 128 kts 272°
2026-05-08 20:56 48.88699 8.26854 3984 ft 129 kts 273°
2026-05-08 20:56 48.88768 8.25517 3981 ft 128 kts 274°
2026-05-08 20:57 48.89207 8.24399 3983 ft 128 kts 333°
2026-05-08 20:57 48.90057 8.24202 3983 ft 124 kts
2026-05-08 20:57 48.90926 8.24182 3982 ft 125 kts
2026-05-08 20:57 48.91794 8.24157 3984 ft 125 kts
2026-05-08 20:58 48.92664 8.24134 3979 ft 125 kts
2026-05-08 20:58 48.93535 8.24114 3981 ft 125 kts
2026-05-08 20:58 48.94410 8.24091 3983 ft 126 kts
2026-05-08 20:58 48.95214 8.23617 3960 ft 132 kts 313°
2026-05-08 20:59 48.95421 8.22331 3844 ft 128 kts 255°
2026-05-08 20:59 48.94877 8.21371 3583 ft 123 kts 197°
2026-05-08 20:59 48.94041 8.21147 3335 ft 121 kts 183°
2026-05-08 20:59 48.93225 8.20955 3094 ft 120 kts 180°
2026-05-08 21:00 48.92527 8.21414 2845 ft 109 kts 122°
2026-05-08 21:00 48.92286 8.22455 2674 ft 98 kts 105°
2026-05-08 21:00 48.92104 8.23376 2662 ft 84 kts 105°
2026-05-08 21:00 48.91947 8.24172 2658 ft 73 kts 105°
2026-05-08 21:01 48.91730 8.24807 2654 ft 71 kts 149°
2026-05-08 21:01 48.91293 8.24469 2632 ft 81 kts 232°
2026-05-08 21:01 48.90968 8.23817 2674 ft 84 kts 225°
2026-05-08 21:01 48.90572 8.23036 2711 ft 105 kts 227°
2026-05-08 21:02 48.90103 8.22124 2680 ft 112 kts 227°
2026-05-08 21:02 48.89580 8.21115 2407 ft 129 kts 228°
2026-05-08 21:02 48.89042 8.20090 2384 ft 119 kts 227°
2026-05-08 21:02 48.88537 8.19133 2379 ft 114 kts 227°
2026-05-08 21:03 48.88052 8.18213 2370 ft 110 kts 227°
2026-05-08 21:03 48.87590 8.17319 2335 ft 107 kts 227°
2026-05-08 21:03 48.87053 8.16532 2233 ft 108 kts 214°
2026-05-08 21:03 48.86471 8.15808 2134 ft 108 kts 215°
2026-05-08 21:04 48.85886 8.15103 2012 ft 107 kts 213°
2026-05-08 21:04 48.85288 8.14428 1811 ft 106 kts 196°
2026-05-08 21:04 48.84592 8.14053 1585 ft 110 kts 198°
2026-05-08 21:04 48.83897 8.13554 1407 ft 108 kts 205°
2026-05-08 21:05 48.83238 8.12966 1209 ft 112 kts 213°
2026-05-08 21:05 48.82586 8.12372 1024 ft 108 kts 208°
2026-05-08 21:05 48.81920 8.11817 858 ft 108 kts 215°
2026-05-08 21:05 48.81361 8.11208 840 ft 96 kts 212°
2026-05-08 21:06 48.80784 8.10713 841 ft 86 kts 209°
2026-05-08 21:06 48.80281 8.10260 699 ft 83 kts 212°
2026-05-08 21:06 48.79806 8.09816 582 ft 78 kts 211°
2026-05-08 21:06 48.79342 8.09381 519 ft 78 kts 214°
2026-05-08 21:07 48.78887 8.08947 446 ft 78 kts 213°
2026-05-08 21:07 48.78448 8.08538 409 ft 70 kts 210°
2026-05-08 21:07 48.78090 8.08193 411 ft 52 kts 213°
2026-05-08 21:07 48.77847 8.07970 408 ft 31 kts 212°
2026-05-08 21:08 48.77639 8.07773 409 ft 39 kts 211°
2026-05-08 21:08 48.77435 8.07580 410 ft 30 kts 213°
2026-05-08 21:08 48.77356 8.07580 410 ft 9 kts 126°
2026-05-08 21:08 48.77322 8.07662 410 ft 8 kts 122°
2026-05-08 21:09 48.77320 8.07666 410 ft 0 kts 122°
2026-05-08 21:09 48.77318 8.07671 410 ft 5 kts 119°
2026-05-08 21:09 48.77241 8.07696 410 ft 19 kts 214°
2026-05-08 21:10 48.77102 8.07558 409 ft 21 kts 212°
2026-05-08 21:10 48.77002 8.07564 410 ft 13 kts 178°
2026-05-08 21:10 48.76925 8.07509 410 ft 11 kts 201°
2026-05-08 21:10 48.76889 8.07570 410 ft 9 kts 96°
2026-05-08 21:11 48.76882 8.07661 410 ft 10 kts 97°
2026-05-08 21:11 48.76872 8.07783 410 ft 6 kts 110°
2026-05-08 21:11 48.76854 8.07798 410 ft 8 kts 201°
2026-05-08 21:11 48.76821 8.07765 410 ft 0 kts 212°